SCP
0 0 0 0 0 0 0 0 0 0 0 0 0 0 0 0 0 0 0 0 0 0 0 0 0 0 0 0 0 0 0 0 0 0 0 0 0 0 0 0 0 0 0 0
0 0 0 0 0 0 0 0 0 0 0 0 0 0 0 0 0 0 0 0 0 0 0 0 0 0 0 0 0 0 0 0 0 0 0 0 -0 -0 -0 0 0 0 0 0
0 0 0 0 0 0 0 0 0 0 0 0 0 0 0 0 0 0 0 0 0 0 0 0 0 0 0 0 0 0 0 0 0 0 0 0 0 0 0 0 0 0 0 0
0 0 0 0 0 0 0 0 0 0 0 0 0 0 0 0 0 0 0 0 0 0 0 0 0 0 0 0 0 0 0 0 0 0 0 0 0 0 0 0 0 0 0 0
0 0 0 0 0 0 0 0 0 0 0 0 0 0 0 0 0 0 0 0 0 0 0 0 0 0 0 0 0 0 0 0 0 0 0 0 0 0 0 0 0 0 0 0
0 0 0 0 0 0 0 0 0 0 0 0 0 0 0 0 0 0 0 0 0 0 0 0 0 0 0 0 0 0 0 0 0 0 0 0 0 0 0 0 0 0 0 0
0 0 0 0 0 0 0 0 0 0 0 0 0 0 0 0 0 0 0 0 0 0 0 0 0 0 0 0 0 0 0 0 0 0 0 0 0 0 0 0 0 0 0 0
0 0 0 0 0 0 0 0 0 0 0 0 0 0 0 0 0 0 0 0 0 0 0 0 0 0 0 0 0 0 0 0 0 0 0 0 0 0 0 0 0 0 0 0
0 0 0 0 0 0 0 0 0 0 0 0 0 0 0 0 0 0 0 0 0 0 0 0 0 0 0 0 0 0 0 0 0 0 0 0 0 0 0 0 0 0 0 0
0 0 0 0 0 0 0 0 0 0 0 0 0 0 0 0 0 0 0 0 0 0 0 0 0 0 0 0 0 0 0 0 0 0 0 0 0 0 0 0 0 0 0 0
0 0 0 0 0 0 0 0 0 0 0 0 0 0 0 0 0 0 0 0 0 0 0 0 0 0 0 0 0 0 0 0 0 0 0 0 0 0 0 0 0 0 0 0
0 0 0 0 0 0 0 0 0 0 0 0 0 0 0 0 0 0 0 0 0 0 0 0 0 0 0 0 0 0 0 0 0 0 0 0 0 0 0 0 0 0 0 0
0 0 0 0 0 0 0 0 0 0 0 0 0 0 0 0 0 0 0 0 0 0 0 0 0 0 0 0 0 0 0 0 0 0 0 0 0 0 0 0 0 0 0 0
0 0 0 0 0 0 0 0 0 0 0 0 0 0 0 0 0 0 0 0 0 0 0 0 0 0 0 0 0 0 0 0 0 0 0 0 0 0 0 0 0 0 0 0
0 0 0 0 0 0 0 0 0 0 0 0 0 0 0 0 0 0 0 0 0 0 0 0 0 0 0 0 0 0 0 0 0 0 0 0 0 0 0 0 0 0 0 0
0 0 0 0 0 0 0 0 0 0 0 0 0 0 0 0 0 0 0 0 0 0 0 0 0 0 0 0 0 0 0 0 0 0 0 0 0 0 0 0 0 0 0 0
0 0 0 0 0 0 0 0 0 0 0 0 0 0 0 0 0 0 0 0 0 0 0 0 0 0 0 0 0 0 0 0 0 0 0 0 0 0 0 0 0 0 0 0
0 0 0 0 0 0 0 0 0 0 0 0 0 0 0 0 0 0 0 0 0 0 0 0 0 0 0 0 0 0 0 0 0 0 0 0 0 0 0 0 0 0 0 0
0 0 0 0 0 0 0 0 0 0 0 0 0 0 0 0 0 0 0 0 0 0 0 0 0 0 0 0 0 0 0 0 0 0 0 0 0 0 0 0 0 0 0 0
0 0 0 0 0 0 0 0 0 0 0 0 0 0 0 0 0 0 0 0 0 0 0 0 0 0 0 0 0 0 0 0 0 0 0 0 0 0 0 0 0 0 0 0
0 0 0 0 0 0 0 0 0 0 0 0 0 0 0 0 0 0 0 0 0 0 0 0 0 0 0 0 0 0 0 0 0 0 0 0 -0 -0 0 0 0 0 0 0
0 0 0 0 0 0 0 0 0 0 0 0 0 0 0 0 0 0 0 0 0 0 0 0 0 0 0 0 0 0 0 0 0 0 0 0 0 0 0 0 0 0 0 0
0 0 0 0 0 0 0 0 0 0 0 0 0 0 0 0 0 0 0 0 0 0 0 0 0 0 0 0 0 0 0 0 0 0 0 0 0 0 0 0 0 0 0 0
0 0 0 0 0 0 0 0 0 0 0 0 0 0 0 0 0 0 0 0 0 0 0 0 0 0 0 0 0 0 0 0 0 0 0 0 0 0 0 0 0 0 0 0
0 0 0 0 0 0 0 0 0 0 0 0 0 0 0 0 0 0 0 0 0 0 0 0 0 0 0 0 0 0 0 0 0 0 0 0 0 0 0 0 0 0 0 0
0 0 0 0 0 0 0 0 0 -0 -0 0 0 0 0 0 0 -0 -0 0 0 0 0 0 0 0 0 0 0 0 0 0 0 0 0 0 0 0 0 0 0 0 0 0
0 0 0 0 0 0 0 0 0 -0 -0 0 0 0 0 0 0 0 0 0 0 0 0 0 0 0 0 0 0 0 0 0 0 0 0 0 0 0 0 0 0 0 0 0
Wind_Speed
4 5 3 5 6 6 6 7 6 6 5 6 6 6 7 6 6 7 7 8 10 9 8 8 8 8 8 7 7 7 7 7 7 6 5 5 5 5 4 4 5 4 3 3
2 3 3 4 6 6 6 5 5 4 5 5 4 3 4 5 7 7 8 9 9 9 9 9 9 9 8 8 8 8 8 8 7 6 6 6 6 5 5 4 4 4 4 4
2 3 2 4 6 7 6 5 6 6 7 3 3 5 7 7 7 8 8 8 9 9 9 10 10 9 10 9 8 8 8 7 7 7 6 6 6 6 5 5 4 4 4 4
1 1 4 7 4 5 5 5 5 5 5 6 7 6 5 6 7 7 7 8 8 8 8 8 8 8 8 8 8 8 7 7 7 7 7 6 6 6 5 4 4 4 4 4
2 2 4 5 3 3 4 3 3 5 5 4 5 4 1 2 5 7 7 7 7 7 7 7 7 8 8 8 8 7 8 8 8 8 7 7 7 6 5 4 4 4 4 4
3 3 5 6 5 2 4 2 4 4 7 6 6 4 4 4 4 4 4 4 5 4 5 6 6 7 8 8 8 8 8 8 7 7 8 8 8 6 4 4 4 4 4 3
4 3 7 7 4 2 4 7 4 4 6 6 5 6 5 5 4 5 5 4 5 5 5 4 5 7 8 7 7 7 6 6 6 7 7 7 6 4 4 4 4 3 3 2
4 4 8 5 2 5 7 4 3 3 4 5 4 4 4 5 5 6 5 4 5 6 4 3 5 7 7 6 6 5 5 6 6 6 6 6 6 4 4 5 4 3 2 1
7 7 6 4 5 4 4 4 3 4 4 6 6 4 4 5 5 5 6 5 4 6 5 3 4 6 7 5 5 6 6 5 5 5 4 5 6 5 4 4 3 3 3 2
2 5 4 3 1 1 2 3 4 5 6 6 6 6 5 5 5 5 4 5 5 6 5 3 3 4 5 4 6 6 6 5 4 5 4 4 4 4 4 4 4 3 3 3
2 3 2 3 1 1 2 2 4 4 5 6 7 6 6 5 5 4 4 4 5 6 5 4 3 3 3 4 6 6 5 4 4 4 4 3 3 2 4 4 5 5 4 3
5 6 4 4 3 3 4 4 4 5 4 4 6 7 6 5 4 5 5 5 5 5 5 4 4 4 3 4 6 7 5 4 3 3 3 3 3 2 3 3 4 5 4 4
5 4 4 4 2 3 4 4 4 4 5 6 5 6 7 6 5 5 5 6 6 5 5 5 5 4 2 3 5 6 6 5 4 4 3 3 3 4 2 3 4 3 2 2
3 3 2 2 2 2 4 5 5 4 4 5 6 6 7 7 6 6 5 4 5 6 5 5 5 3 2 4 5 5 5 5 4 3 3 3 3 3 3 3 1 1 1 0
3 3 5 3 3 3 4 5 6 4 4 4 5 7 7 7 7 5 4 5 6 6 5 4 4 2 2 4 6 5 4 3 3 3 3 3 3 3 2 3 2 1 1 2
1 1 4 5 5 4 5 5 5 4 4 5 6 6 6 7 6 6 5 5 6 5 4 4 3 2 3 5 5 4 3 5 5 4 3 3 3 3 2 2 2 1 1 0
4 3 3 4 5 4 4 5 5 5 4 5 6 6 7 8 7 6 5 5 5 5 4 4 3 3 4 5 5 4 3 4 6 5 3 3 3 3 2 2 2 1 0 0
5 6 6 7 6 6 5 5 5 5 4 5 6 7 8 8 7 6 5 5 6 5 3 3 4 4 4 4 4 4 4 3 3 3 3 3 3 3 2 2 2 1 0 1
2 3 4 4 5 5 5 5 5 5 4 5 7 7 7 6 6 6 6 6 6 4 1 2 6 6 4 4 5 4 4 4 4 3 3 4 3 2 2 2 2 1 1 1
2 3 4 4 4 4 4 3 4 4 4 5 6 7 6 6 6 7 7 5 3 3 3 4 5 4 3 4 6 4 4 4 4 3 3 3 3 2 2 2 2 2 2 1
3 4 4 4 4 3 3 4 4 4 4 6 7 7 7 6 6 6 6 4 1 2 5 7 4 3 3 4 6 4 4 4 3 3 3 3 3 2 2 2 2 2 2 2
3 4 4 4 4 3 2 3 4 5 5 5 6 7 7 6 5 5 4 3 3 6 4 3 3 5 6 6 4 4 4 4 3 3 3 3 3 3 2 2 2 2 2 1
2 3 3 4 4 4 3 3 4 5 6 6 7 7 7 5 5 5 3 1 3 6 4 3 6 8 9 6 4 4 4 4 4 3 3 3 3 3 2 2 2 2 1 1
2 2 2 3 4 5 4 3 4 4 5 5 5 6 6 5 3 2 3 6 7 7 4 6 9 10 9 4 4 4 4 4 3 3 3 3 3 2 2 2 2 1 1 1
1 2 3 4 4 3 4 4 5 5 6 4 4 4 4 4 4 4 4 5 8 8 5 7 10 10 6 4 4 4 4 3 4 4 3 3 3 2 2 1 1 1 1 1
1 2 2 2 3 3 4 4 4 4 5 5 4 3 4 4 5 5 5 6 7 8 5 4 5 6 4 4 4 4 4 4 4 4 3 3 2 2 1 1 1 1 0 1
2 2 2 3 2 3 4 4 4 4 4 6 5 3 4 5 5 5 6 5 5 5 4 4 4 4 4 4 4 4 4 3 3 3 3 2 2 2 1 1 1 1 1 1
Wind_Direction
230 245 223 221 221 202 187 189 192 221 220 232 216 199 187 179 176 168 171 175 178 181 182 182 182 183 183 184 180 174 170 176 184 181 173 165 160 163 159 155 158 158 148 146
293 279 259 248 234 210 205 198 200 213 246 232 193 166 166 170 165 165 175 181 184 185 184 186 187 186 182 183 181 172 174 182 180 173 167 166 166 163 156 157 157 150 155 155
270 295 341 257 225 205 203 196 181 206 226 185 157 172 180 183 172 175 183 185 186 188 190 191 190 185 184 185 177 173 178 178 174 174 172 172 166 159 164 168 159 158 167 161
221 28 232 251 245 193 190 221 206 199 195 180 180 183 183 175 174 180 185 187 189 190 192 191 186 183 180 172 171 175 177 177 176 172 172 169 163 169 174 166 163 168 173 173
145 201 273 287 265 177 168 240 219 184 179 172 148 102 18 211 180 182 185 184 186 188 185 178 179 178 167 167 170 173 180 183 180 173 171 170 174 180 176 166 169 173 172 172
148 173 231 246 253 222 130 251 262 182 175 169 136 133 233 223 181 165 164 166 164 158 148 158 172 162 157 167 171 184 188 186 178 173 173 178 185 182 171 168 176 168 171 180
170 206 258 251 257 113 149 221 238 181 169 170 173 189 195 175 161 155 150 146 143 137 142 162 162 150 155 163 182 190 177 167 168 173 177 180 177 169 159 161 159 162 171 186
167 193 246 251 155 176 210 208 181 156 149 146 147 144 144 145 143 137 130 129 133 133 137 138 142 144 148 170 183 162 152 157 167 170 172 166 158 159 158 156 157 165 164 192
187 212 236 227 213 217 172 167 168 147 143 135 133 141 143 138 136 136 132 130 129 128 123 113 132 144 151 174 157 145 144 156 162 161 161 155 156 158 153 155 162 171 171 197
224 258 262 260 231 68 162 169 162 147 144 136 137 141 135 132 131 129 125 128 124 119 118 121 137 147 157 156 144 139 143 152 153 150 148 145 148 153 158 167 169 174 181 197
232 272 345 336 312 128 81 103 120 121 134 141 136 136 135 135 137 133 124 121 121 122 123 129 129 131 135 139 139 134 133 132 131 134 142 140 134 146 163 177 176 175 186 184
211 219 193 237 242 149 120 118 124 120 110 117 132 139 134 132 132 129 128 123 117 114 115 116 111 106 107 125 134 134 129 128 130 133 132 132 127 90 57 97 132 150 158 162
206 213 207 207 199 160 139 132 119 115 134 131 125 129 131 127 123 121 121 124 129 129 123 117 108 99 99 117 125 129 133 137 134 133 134 135 134 134 115 49 60 87 120 143
187 149 149 177 184 160 136 125 111 101 108 125 127 121 119 114 113 116 125 134 130 119 113 113 108 102 108 116 118 123 128 133 133 135 139 140 142 146 144 142 126 14 347 315
224 181 177 168 141 120 114 109 104 102 103 109 121 124 125 123 125 130 123 118 111 104 102 107 105 96 103 114 116 119 122 125 128 127 127 128 130 131 130 135 138 136 50 16
205 119 129 138 146 140 128 127 133 145 136 134 131 132 132 129 126 120 115 119 119 121 118 110 105 96 103 109 111 112 115 119 121 120 115 112 114 117 118 121 123 121 127 130
159 175 163 160 166 159 153 157 159 158 152 151 150 138 126 118 114 113 115 117 118 119 115 112 109 96 97 107 112 111 107 110 108 108 112 117 114 114 116 117 121 124 164 132
192 190 187 180 174 163 155 153 156 153 155 160 146 133 130 135 138 139 134 120 107 96 89 101 103 100 94 96 104 106 107 106 108 114 114 111 113 116 118 121 126 124 76 54
202 184 172 163 162 154 154 157 155 151 145 139 137 136 141 145 142 136 128 120 119 122 126 96 100 100 96 94 100 100 104 105 102 101 105 105 102 102 111 115 110 100 89 72
146 151 143 141 139 142 149 149 143 140 142 138 133 130 131 137 134 130 126 129 156 167 147 119 112 106 103 101 95 100 104 108 109 107 103 105 108 101 96 99 100 95 88 86
141 141 140 142 141 138 146 148 144 150 149 141 141 145 145 140 136 134 131 133 174 123 120 116 116 116 110 106 96 98 100 102 104 107 106 106 103 96 91 89 86 84 82 78
132 138 145 148 141 138 144 143 143 142 139 137 136 135 133 132 130 123 125 149 149 131 124 123 121 117 113 105 101 101 102 103 102 102 103 104 104 101 96 91 88 81 78 78
137 137 141 149 151 149 139 140 144 143 142 144 144 143 144 147 147 140 140 150 131 126 122 125 120 115 110 105 104 104 104 105 106 108 107 106 107 108 105 95 86 81 76 65
105 124 136 138 132 130 136 140 133 130 130 130 138 142 139 131 114 109 125 126 120 117 114 119 116 111 105 103 105 106 107 106 105 105 103 98 96 95 96 95 87 74 65 50
101 117 124 131 140 152 152 132 115 109 106 101 102 106 115 129 135 132 118 117 116 111 104 110 110 106 101 103 108 110 111 109 108 106 102 100 98 96 94 93 93 80 48 19
100 120 135 147 149 143 137 130 126 124 120 112 100 96 95 97 105 108 106 107 109 107 103 103 104 99 96 98 98 99 100 101 96 92 96 97 95 90 83 70 55 48 25 354
77 87 98 94 92 109 118 123 128 134 137 134 126 117 112 110 108 107 106 104 104 102 100 97 97 98 97 96 94 92 91 91 93 94 92 88 85 78 63 38 14 3 348 324